NAVSTAR 55 (USA 178) (28361 NORAD) Tracking and Keplerian Element Data

This shows tracking and keplerian element data for the satellite.

Feedback or suggestion? Click here.




ElementValue
Catalog28361
NameNAVSTAR 55 (USA 178)
Epoch Orbit15745
Epoch Day354.22306654
Epoch Year2025
RAAN93.9468
Inclination54.7396
Eccentricity0.0156698
Argument of Perigee296.1801
Mean Anonmoly117.2504
Mean Motion2.00573166
Decay Rate-2.3E-07
L11 28361U 04023A 25354.22306654 -.00000023 00000+0 00000+0 0 9990
L22 28361 54.7396 93.9468 0156698 296.1801 117.2504 2.00573166157459



Live tracking and technical data element details for NAVSTAR 55 (USA 178) (NORAD 28361). NAVSTAR 55 (USA 178) can be tracked NOW for your location showing map with azimuth and elevation plus other details from your city location.







IsCatalogInMostPopularTable: catalog: 28361, numindb: 346
Update: records affected: 1



GetName: 28361 NAVSTAR 55 (USA 178)

Hit Count: updated at: Sat, 14 Mar 2026 01:50:26 GMT